Weather History for KMLC - April, 2014

Change the Weather History Date:

Sunday, April 27, 2014

  Actual Average Record
Temperature  
Mean Temperature 77 °F -  
Max Temperature 86 °F 75 °F 91 °F (1987)
Min Temperature 68 °F 51 °F 37 °F (1980)
Cooling Degree Days 12    
Growing Degree Days 27 (Base 50)    
Moisture  
Dew Point 62 °F    
Average Humidity 69    
Maximum Humidity 87    
Minimum Humidity 28    
Precipitation  
Precipitation 0.00 in - - ()
Sea Level Pressure  
Sea Level Pressure 29.48 in    
Wind  
Wind Speed 12 mph (South)    
Max Wind Speed 21 mph    
Max Gust Speed 30 mph    
Visibility 9 miles    
Events Rain , Thunderstorm    
Averages and records for this station are not official NWS values.
T = Trace of Precipitation, MM = Missing Value Source: NWS Daily Summary

Daily Weather History Graph

Daily Weather History Graph

Search for Another Location

Airport or City:

Trip Planner

Search our weather history database for the weather conditions in past years. The results will help you decide how hot, cold, wet, or windy it might be!

Date:

Astronomy

Apr. 27, 2014 Rise Set
Actual Time 6:36 AM CDT 8:05 PM CDT
Civil Twilight 6:10 AM CDT 8:32 PM CDT
Nautical Twilight 5:38 AM CDT 9:04 PM CDT
Astronomical Twilight 5:04 AM CDT 9:37 PM CDT
Moon 5:33 AM CDT (4/27) 6:43 PM CDT (4/27)
Length of Visible Light 14h 21m
Length of Day
13h 28m
Waning Crescent, 3% of the Moon is Illuminated
Apr 27
Waning Crescent
Apr 29
New
May 6
First Quarter
May 14
Full
May 21
Last Quarter

Hourly Weather History & Observations

Time (CDT) Temp. Heat Index Dew Point Humidity Pressure Visibility Wind Dir Wind Speed Gust Speed Precip Events Conditions
12:19 AM 75.9 °F - 64.9 °F 69% 29.64 in 10.0 mi South 13.8 mph 24.2 mph N/A   Overcast
12:53 AM 75.0 °F - 64.9 °F 71% 29.60 in 10.0 mi South 12.7 mph 23.0 mph N/A   Overcast
1:41 AM 73.9 °F - 64.9 °F 73% 29.61 in 10.0 mi South 13.8 mph 27.6 mph N/A   Mostly Cloudy
1:53 AM 73.9 °F - 64.9 °F 73% 29.58 in 10.0 mi South 15.0 mph 25.3 mph N/A   Mostly Cloudy
2:03 AM 73.9 °F - 64.0 °F 71% 29.60 in 10.0 mi South 12.7 mph 25.3 mph N/A   Mostly Cloudy
2:53 AM 72.0 °F - 63.0 °F 73% 29.57 in 10.0 mi South 9.2 mph - N/A   Partly Cloudy
3:48 AM 71.6 °F - 62.6 °F 73% 29.58 in 10.0 mi South 16.1 mph 29.9 mph N/A   Mostly Cloudy
3:53 AM 72.0 °F - 62.1 °F 71% 29.55 in 10.0 mi South 15.0 mph 29.9 mph N/A   Overcast
4:53 AM 72.0 °F - 62.1 °F 71% 29.55 in 10.0 mi South 11.5 mph 20.7 mph N/A   Overcast
5:22 AM 72.0 °F - 63.0 °F 73% 29.57 in 10.0 mi South 11.5 mph 26.5 mph N/A   Overcast
5:53 AM 72.0 °F - 64.0 °F 76% 29.54 in 10.0 mi South 11.5 mph 20.7 mph N/A   Overcast
6:37 AM 69.1 °F - 64.9 °F 87% 29.56 in 4.0 mi South 10.4 mph 20.7 mph 0.00 in Rain Light Rain
6:50 AM 69.8 °F - 64.4 °F 83% 29.55 in 5.0 mi South 10.4 mph 21.9 mph 0.00 in Rain Light Rain
6:53 AM 69.1 °F - 64.9 °F 87% 29.52 in 5.0 mi South 10.4 mph 18.4 mph 0.00 in Rain Light Rain
7:42 AM 72.0 °F - 64.9 °F 78% 29.51 in 9.0 mi SSE 11.5 mph 25.3 mph 0.00 in   Mostly Cloudy
7:53 AM 73.0 °F - 64.0 °F 73% 29.50 in 9.0 mi South 16.1 mph 26.5 mph 0.00 in   Overcast
8:07 AM 73.0 °F - 64.0 °F 73% 29.53 in 10.0 mi South 12.7 mph 21.9 mph N/A   Overcast
8:53 AM 72.0 °F - 64.9 °F 78% 29.50 in 6.0 mi South 10.4 mph 19.6 mph 0.00 in Rain Light Rain
9:53 AM 73.0 °F - 66.0 °F 79% 29.51 in 9.0 mi South 12.7 mph 20.7 mph 0.00 in   Overcast
10:14 AM 72.0 °F - 66.0 °F 81% 29.49 in 8.0 mi Variable 5.8 mph - N/A Thunderstorm Overcast
10:36 AM 72.0 °F - 66.0 °F 81% 29.51 in 8.0 mi South 11.5 mph 20.7 mph N/A Thunderstorm Mostly Cloudy
10:39 AM 72.0 °F - 66.0 °F 81% 29.51 in 8.0 mi South 6.9 mph 19.6 mph N/A   Mostly Cloudy
10:53 AM 71.6 °F - 66.2 °F 83% 29.52 in 9.0 mi South 11.5 mph 20.7 mph N/A   Mostly Cloudy
11:07 AM 72.0 °F - 64.9 °F 78% 29.52 in 10.0 mi South 10.4 mph 19.6 mph N/A   Mostly Cloudy
11:53 AM 77.0 °F - 66.9 °F 71% 29.49 in 10.0 mi South 13.8 mph 23.0 mph N/A   Mostly Cloudy
12:53 PM 77.0 °F - 66.9 °F 71% 29.46 in 8.0 mi South 11.5 mph 23.0 mph N/A   Overcast
1:49 PM 82.4 °F 85.4 °F 68.0 °F 62% 29.46 in 9.0 mi South 15.0 mph 24.2 mph N/A   Scattered Clouds
1:53 PM 81.0 °F 83.3 °F 66.9 °F 62% 29.43 in 9.0 mi South 15.0 mph 24.2 mph N/A   Partly Cloudy
2:53 PM 84.2 °F 85.0 °F 62.6 °F 48% 29.44 in 10.0 mi SSW 20.7 mph 29.9 mph N/A   Clear
3:53 PM 86.0 °F 84.2 °F 54.0 °F 33% 29.39 in 10.0 mi SW 16.1 mph 25.3 mph N/A   Clear
4:53 PM 86.0 °F - 50.0 °F 29% 29.36 in 10.0 mi SSW 16.1 mph - N/A   Clear
5:53 PM 84.9 °F - 48.0 °F 28% 29.35 in 10.0 mi SSW 16.1 mph 27.6 mph N/A   Clear
6:53 PM 80.1 °F 80.4 °F 57.0 °F 45% 29.34 in 10.0 mi SSE 4.6 mph - N/A   Clear
7:53 PM 75.9 °F - 63.0 °F 64% 29.37 in 10.0 mi SE 4.6 mph - N/A   Clear
8:25 PM 73.0 °F - 63.0 °F 71% 29.39 in 10.0 mi SSE 4.6 mph - N/A Thunderstorm Thunderstorm
8:46 PM 72.0 °F - 64.0 °F 76% 29.40 in 9.0 mi Calm Calm - N/A Thunderstorm Partly Cloudy
8:53 PM 72.0 °F - 64.0 °F 76% 29.37 in 8.0 mi Calm Calm - N/A Thunderstorm Scattered Clouds
9:14 PM 69.1 °F - 63.0 °F 81% 29.40 in 9.0 mi Calm Calm - N/A   Mostly Cloudy
9:23 PM 68.0 °F - 63.0 °F 84% 29.41 in 9.0 mi SSE 4.6 mph - N/A Thunderstorm Thunderstorm
9:38 PM 70.0 °F - 57.9 °F 65% 29.41 in 10.0 mi SE 4.6 mph - N/A   Overcast
9:53 PM 70.0 °F - 53.1 °F 55% 29.40 in 10.0 mi SSE 5.8 mph - N/A   Overcast
10:53 PM 71.1 °F - 53.1 °F 53% 29.40 in 10.0 mi South 8.1 mph - N/A   Partly Cloudy
11:53 PM 71.1 °F - 55.0 °F 57% 29.42 in 10.0 mi SSW 5.8 mph - N/A   Scattered Clouds